Dover AFB, DE

3:39 PM EDT on July 23, 2017 (GMT -0400)
Dover Air Force Base

Weather History for KDOV - November, 2013

Change the Weather History Date:

Sunday, November 24, 2013

  Actual Average Record
Temperature  
Mean Temperature 28 °F -  
Max Temperature 32 °F 54 °F 72 °F (1979)
Min Temperature 24 °F 36 °F 19 °F (1956)
Degree Days  
Heating Degree Days 36    
Moisture  
Dew Point 3 °F    
Average Humidity 36    
Maximum Humidity 53    
Minimum Humidity 26    
Precipitation  
Precipitation 0.00 in - - ()
Sea Level Pressure  
Sea Level Pressure 30.32 in    
Wind  
Wind Speed 18 mph (WNW)    
Max Wind Speed 26 mph    
Max Gust Speed 44 mph    
Visibility 10 miles    
Events      
Averages and records for this station are not official NWS values.
T = Trace of Precipitation, MM = Missing Value Source: NWS Daily Summary

Daily Weather History Graph

Daily Weather History Graph

Search for Another Location

Airport or City:

Trip Planner

Search our weather history database for the weather conditions in past years. The results will help you decide how hot, cold, wet, or windy it might be!

Date:

Astronomy

Nov. 24, 2013 Rise Set
Actual Time 6:55 AM EST 4:41 PM EST
Civil Twilight 6:25 AM EST 5:11 PM EST
Nautical Twilight 5:53 AM EST 5:43 PM EST
Astronomical Twilight 5:21 AM EST 6:15 PM EST
Moon 11:04 PM EST (11/24) 11:43 AM EST (11/24)
Length of Visible Light 10h 45m
Length of Day
9h 46m
Waning Gibbous, 61% of the Moon is Illuminated
Nov 24
Waning Gibbous
Nov 25
Last Quarter
Dec 2
New
Dec 9
First Quarter
Dec 17
Full

Hourly Weather History & Observations

Time (EST) Temp. Windchill Dew Point Humidity Pressure Visibility Wind Dir Wind Speed Gust Speed Precip Events Conditions
12:58 AM 32.4 °F 20.9 °F 9.7 °F 39% 30.13 in 10.0 mi NW 18.4 mph 26.5 mph N/A   Partly Cloudy
1:58 AM 29.8 °F 16.3 °F 7.3 °F 39% 30.15 in 10.0 mi NW 23.0 mph 31.1 mph N/A   Partly Cloudy
2:58 AM 28.2 °F 16.8 °F 4.5 °F 36% 30.18 in 10.0 mi WNW 15.0 mph - N/A   Clear
3:58 AM 27.7 °F 12.8 °F 1.4 °F 32% 30.18 in 10.0 mi WNW 25.3 mph 38.0 mph N/A   Clear
4:58 AM 27.0 °F 14.7 °F 5.2 °F 40% 30.20 in 10.0 mi West 16.1 mph 24.2 mph N/A   Clear
5:58 AM 26.6 °F 12.4 °F 7.7 °F 45% 30.22 in 10.0 mi WNW 21.9 mph 27.6 mph N/A   Partly Cloudy
6:58 AM 26.6 °F 13.1 °F 4.8 °F 40% 30.24 in 10.0 mi WNW 19.6 mph 31.1 mph N/A   Mostly Cloudy
7:58 AM 26.2 °F 13.4 °F 5.7 °F 42% 30.28 in 10.0 mi WNW 17.3 mph 28.8 mph N/A   Clear
8:58 AM 27.7 °F 15.2 °F 4.6 °F 38% 30.30 in 10.0 mi NW 17.3 mph 28.8 mph N/A   Scattered Clouds
9:58 AM 29.5 °F 16.5 °F -0.6 °F 28% 30.31 in 10.0 mi WNW 20.7 mph 29.9 mph N/A   Partly Cloudy
10:58 AM 30.0 °F 16.0 °F 1.0 °F 29% 30.31 in 10.0 mi WNW 25.3 mph 43.7 mph N/A   Scattered Clouds
11:58 AM 30.6 °F 17.3 °F 0.3 °F 27% 30.30 in 10.0 mi NW 23.0 mph 39.1 mph N/A   Clear
12:58 PM 31.8 °F 18.1 °F 0.7 °F 27% 30.29 in 10.0 mi WNW 26.5 mph 36.8 mph N/A   Clear
1:58 PM 32.0 °F 19.5 °F 0.9 °F 27% 30.31 in 10.0 mi NW 21.9 mph 34.5 mph N/A   Clear
2:58 PM 31.8 °F 19.6 °F 0.7 °F 27% 30.33 in 10.0 mi WNW 20.7 mph 31.1 mph N/A   Clear
3:58 PM 30.4 °F 19.1 °F -0.8 °F 26% 30.35 in 10.0 mi NW 16.1 mph 25.3 mph N/A   Clear
4:58 PM 28.4 °F 18.0 °F -0.9 °F 28% 30.38 in 10.0 mi NW 12.7 mph 24.2 mph N/A   Clear
5:58 PM 26.8 °F 17.1 °F -0.9 °F 30% 30.41 in 10.0 mi NW 10.4 mph - N/A   Clear
6:58 PM 26.4 °F 18.9 °F 0.1 °F 32% 30.43 in 10.0 mi West 6.9 mph - N/A   Clear
7:58 PM 26.6 °F 19.1 °F -0.0 °F 32% 30.45 in 10.0 mi WNW 6.9 mph - N/A   Clear
8:58 PM 25.9 °F 16.6 °F 3.0 °F 38% 30.46 in 10.0 mi West 9.2 mph - N/A   Clear
9:58 PM 25.3 °F 18.5 °F 7.0 °F 46% 30.47 in 10.0 mi West 5.8 mph - N/A   Clear
10:58 PM 25.2 °F 15.7 °F 9.1 °F 51% 30.48 in 10.0 mi West 9.2 mph - N/A   Clear
11:58 PM 24.8 °F 16.1 °F 9.7 °F 53% 30.48 in 10.0 mi West 8.1 mph - N/A   Clear